Date String (YYYY-MM-DD hh:mm:ss) UTC,Instrument flags,absolute air pressure of the measurement (hPa),sample flow rate (lpm),inlet stack bypass flow (lpm),air temperature of the measurement (°C),ambient temperature measured by the external sensor (°C),aerosol sample conditioner tube jacket temperature (°C),OPC LED temperature (°C),internal box temperature (°C),relative humidity of the measurement (%),span deviation,mass concentration of particles derived from Lorenz-Mie calculation of OPC scattering (μg/m³),mass concentration of particles derived from Lorenz-Mie calculation of OPC scattering (μg/m³),mass concentration of particles derived from Lorenz-Mie calculation of OPC scattering (μg/m³)
DateTimeUTC,F1_M11,P_M11,Q1_M11,Q2_M11,T1_M11,T2_M11,T3_M11,T4_M11,T5_M11,U1_M11,ZSPAN_M11,X0_M11,X2_M11,X1_M11
2024-01-30 13:00:00,SystemResetWarning,0834.4,5.00,000.00,021.5,020.4,000.0,029.8,022.9,15.5,0000.0,0006.29,0002.19,0001.72
2024-01-30 13:01:00,SystemResetWarning,0834.4,5.01,000.00,021.5,020.4,000.0,029.8,022.9,15.4,0000.0,0006.05,0002.10,0001.66
2024-01-30 13:02:00,SystemResetWarning,0834.4,5.00,000.00,021.5,020.4,000.0,029.8,022.9,15.4,0000.0,0005.01,0002.03,0001.62
2024-01-30 13:03:00,SystemResetWarning,0834.4,4.99,000.00,021.5,020.4,000.0,029.8,022.9,15.4,0000.0,0004.99,0002.03,0001.60
2024-01-30 13:04:00,SystemResetWarning,0834.4,4.99,000.00,021.5,020.4,000.0,029.8,022.9,15.4,0000.0,0004.43,0002.00,0001.58
2024-01-30 13:05:00,SystemResetWarning,0834.3,5.00,000.00,021.5,020.4,000.0,029.8,022.9,15.3,0000.0,0002.92,0001.95,0001.56
2024-01-30 13:06:00,SystemResetWarning,0834.3,5.00,000.00,021.5,020.4,000.0,029.8,022.9,15.3,0000.0,0003.14,0001.95,0001.54
2024-01-30 13:07:00,SystemResetWarning,0834.3,5.00,000.00,021.5,020.4,000.0,029.8,022.9,15.3,0000.0,0003.11,0001.92,0001.52
2024-01-30 13:08:00,SystemResetWarning,0834.7,4.99,000.00,021.5,020.4,000.0,029.8,022.8,15.2,0000.0,0002.86,0001.89,0001.50
2024-01-30 13:09:00,SystemResetWarning,0834.4,5.00,000.00,021.5,020.4,000.0,029.8,022.8,15.2,0000.0,0002.83,0001.89,0001.52
2024-01-30 13:10:00,SystemResetWarning,0834.6,5.00,000.00,021.5,020.4,000.0,029.8,022.8,15.1,0000.0,0002.85,0001.92,0001.55
2024-01-30 13:11:00,SystemResetWarning,0834.6,5.00,000.00,021.5,020.4,000.0,029.8,022.8,15.1,0000.0,0002.93,0001.94,0001.58
2024-01-30 13:12:00,SystemResetWarning,0834.6,5.01,000.00,021.5,020.3,000.0,029.8,022.8,15.2,0000.0,0003.01,0001.94,0001.60
2024-01-30 13:13:00,SystemResetWarning,0834.5,5.00,000.00,021.4,020.3,000.0,029.8,022.8,15.2,0000.0,0003.04,0001.98,0001.63
2024-01-30 13:14:00,SystemResetWarning,0834.3,5.00,000.00,021.4,020.3,000.0,029.8,022.8,15.2,0000.0,0003.10,0001.94,0001.62
2024-01-30 13:15:00,SystemResetWarning,0834.5,5.00,000.00,021.4,020.3,000.0,029.8,022.8,15.2,0000.0,0003.22,0001.92,0001.61
2024-01-30 13:16:00,SystemResetWarning,0834.4,5.00,000.00,021.4,020.3,000.0,029.8,022.8,15.2,0000.0,0003.61,0001.93,0001.62
2024-01-30 13:17:00,SystemResetWarning,0834.2,5.00,000.00,021.4,020.3,000.0,029.8,022.7,15.2,0000.0,0003.45,0001.91,0001.62
2024-01-30 13:18:00,SystemResetWarning,0834.4,5.00,000.00,021.4,020.3,000.0,029.8,022.7,15.2,0000.0,0003.45,0001.89,0001.62
2024-01-30 13:19:00,SystemResetWarning,0834.3,5.00,000.00,021.4,020.3,000.0,029.8,022.7,15.2,0000.0,0004.42,0001.89,0001.61
2024-01-30 13:20:00,SystemResetWarning,0834.2,5.01,000.00,021.4,020.3,000.0,029.7,022.7,15.2,0000.0,0004.42,0001.89,0001.59
2024-01-30 13:21:00,SystemResetWarning,0834.2,5.00,000.00,021.4,020.3,000.0,029.7,022.7,15.2,0000.0,0004.43,0001.88,0001.56
2024-01-30 13:22:00,SystemResetWarning,0834.6,5.00,000.00,021.4,020.3,000.0,029.7,022.7,15.1,0000.0,0004.39,0001.84,0001.53
2024-01-30 13:23:00,SystemResetWarning,0834.3,5.00,000.00,021.4,020.3,000.0,029.7,022.7,15.2,0000.0,0004.23,0001.82,0001.50
2024-01-30 13:24:00,SystemResetWarning,0834.7,5.00,000.00,021.4,020.3,000.0,029.7,022.7,15.2,0000.0,0004.16,0001.77,0001.47
2024-01-30 13:25:00,SystemResetWarning,0834.4,5.00,000.00,021.4,020.3,000.0,029.7,022.7,15.0,0000.0,0004.35,0001.76,0001.45
2024-01-30 13:26:00,SystemResetWarning,0834.3,5.01,000.00,021.4,020.3,000.0,029.7,022.8,15.0,0000.0,0004.37,0001.74,0001.44
2024-01-30 13:27:00,SystemResetWarning,0834.4,5.00,000.00,021.4,020.3,000.0,029.7,022.7,14.9,0000.0,0004.00,0001.71,0001.43
2024-01-30 13:28:00,SystemResetWarning,0834.3,5.01,000.00,021.4,020.3,000.0,029.7,022.7,14.7,0000.0,0003.96,0001.70,0001.41
2024-01-30 13:29:00,SystemResetWarning,0834.3,5.00,000.00,021.4,020.3,000.0,029.7,022.7,14.7,0000.0,0003.99,0001.68,0001.40
2024-01-30 13:30:00,SystemResetWarning,0834.3,4.99,000.00,021.3,020.3,000.0,029.7,022.7,14.8,0000.0,0002.81,0001.64,0001.38
2024-01-30 13:31:00,SystemResetWarning,0834.3,5.00,000.00,021.3,020.3,000.0,029.7,022.7,14.8,0000.0,0002.76,0001.65,0001.37
2024-01-30 13:32:00,SystemResetWarning,0834.2,5.00,000.00,021.3,020.3,000.0,029.7,022.7,14.9,0000.0,0002.72,0001.62,0001.35
2024-01-30 13:33:00,SystemResetWarning,0834.3,5.00,000.00,021.4,020.3,000.0,029.7,022.7,14.8,0000.0,0002.72,0001.63,0001.35
2024-01-30 13:34:00,SystemResetWarning,0834.3,5.01,000.00,021.3,020.3,000.0,029.7,022.7,14.9,0000.0,0002.78,0001.64,0001.33
2024-01-30 13:35:00,SystemResetWarning,0834.4,5.01,000.00,021.3,020.3,000.0,029.7,022.7,15.1,0000.0,0002.78,0001.63,0001.32
2024-01-30 13:36:00,SystemResetWarning,0834.4,4.99,000.00,021.3,020.3,000.0,029.7,022.7,15.0,0000.0,0002.49,0001.59,0001.31
2024-01-30 13:37:00,SystemResetWarning,0834.4,4.99,000.00,021.3,020.3,000.0,029.7,022.7,14.9,0000.0,0002.26,0001.59,0001.30
2024-01-30 13:38:00,SystemResetWarning,0834.4,5.00,000.00,021.3,020.3,000.0,029.7,022.7,14.7,0000.0,0002.32,0001.62,0001.29
2024-01-30 13:39:00,SystemResetWarning,0834.4,5.00,000.00,021.3,020.3,000.0,029.7,022.7,14.7,0000.0,0002.28,0001.63,0001.29
2024-01-30 13:40:00,SystemResetWarning,0834.4,4.99,000.00,021.3,020.3,000.0,029.7,022.7,15.0,0000.0,0002.23,0001.62,0001.28
2024-01-30 13:41:00,SystemResetWarning,0834.4,5.01,000.00,021.3,020.3,000.0,029.7,022.7,15.3,0000.0,0002.71,0001.64,0001.27
2024-01-30 13:42:00,SystemResetWarning,0834.4,5.01,000.00,021.3,020.3,000.0,029.7,022.7,15.3,0000.0,0003.45,0001.63,0001.27
2024-01-30 13:43:00,SystemResetWarning,0834.5,4.99,000.00,021.3,020.3,000.0,029.7,022.7,15.4,0000.0,0003.61,0001.64,0001.28
2024-01-30 13:44:00,SystemResetWarning,0834.5,4.99,000.00,021.3,020.2,000.0,029.6,022.7,15.6,0000.0,0003.61,0001.64,0001.28
2024-01-30 13:45:00,SystemResetWarning,0834.5,4.99,000.00,021.3,020.3,000.0,029.6,022.7,15.8,0000.0,0003.56,0001.66,0001.30
2024-01-30 13:46:00,SystemResetWarning,0834.4,4.99,000.00,021.3,020.3,000.0,029.6,022.7,16.1,0000.0,0003.59,0001.68,0001.31
2024-01-30 13:47:00,SystemResetWarning,0834.5,5.00,000.00,021.3,020.3,000.0,029.6,022.7,16.1,0000.0,0003.56,0001.67,0001.32
2024-01-30 13:48:00,SystemResetWarning,0834.5,5.00,000.00,021.3,020.3,000.0,029.6,022.7,16.2,0000.0,0003.63,0001.70,0001.32
2024-01-30 13:49:00,SystemResetWarning,0834.5,5.01,000.00,021.3,020.3,000.0,029.6,022.7,16.2,0000.0,0003.74,0001.72,0001.34
2024-01-30 13:50:00,SystemResetWarning,0834.5,4.99,000.00,021.3,020.3,000.0,029.6,022.7,16.2,0000.0,0004.86,0001.68,0001.33
2024-01-30 13:51:00,SystemResetWarning,0834.5,4.99,000.00,021.3,020.3,000.0,029.6,022.7,16.4,0000.0,0005.04,0001.69,0001.34
2024-01-30 13:52:00,SystemResetWarning,0834.5,4.99,000.00,021.3,020.3,000.0,029.6,022.7,16.8,0000.0,0005.15,0001.70,0001.34
2024-01-30 13:53:00,SystemResetWarning,0834.5,5.00,000.00,021.3,020.3,000.0,029.6,022.7,17.1,0000.0,0004.18,0001.67,0001.33
2024-01-30 13:54:00,SystemResetWarning,0834.5,5.00,000.00,021.3,020.3,000.0,029.6,022.7,17.3,0000.0,0004.04,0001.65,0001.32
2024-01-30 13:55:00,SystemResetWarning,0834.4,5.00,000.00,021.3,020.3,000.0,029.6,022.7,17.5,0000.0,0003.89,0001.61,0001.30
2024-01-30 13:56:00,SystemResetWarning,0834.4,5.00,000.00,021.3,020.3,000.0,029.6,022.7,17.4,0000.0,0003.90,0001.58,0001.28
2024-01-30 13:57:00,SystemResetWarning,0834.4,5.00,000.00,021.3,020.3,000.0,029.6,022.7,17.3,0000.0,0003.81,0001.54,0001.26
2024-01-30 13:58:00,SystemResetWarning,0834.5,5.01,000.00,021.3,020.3,000.0,029.6,022.6,17.2,0000.0,0003.82,0001.53,0001.24
2024-01-30 13:59:00,SystemResetWarning,0834.5,4.99,000.00,021.3,020.2,000.0,029.6,022.6,17.1,0000.0,0003.83,0001.51,0001.23
